13-03-2023, 00:00:09,    173,    1.4,    9.9,   0.00,   0.00,  993.6,    0.0, -999.0
13-03-2023, 00:00:19,    215,    1.4,    9.9,   0.00,   0.00,  993.6,    0.1, -999.0
13-03-2023, 00:00:30,    194,    1.0,    9.9,   0.00,   0.00,  993.6,    0.1, -999.0
13-03-2023, 00:00:39,    169,    1.3,    9.9,   0.00,   0.00,  993.6,    0.1, -999.0
13-03-2023, 00:00:49,    200,    0.4,    9.8,   0.00,   0.00,  993.5,    0.0, -999.0
13-03-2023, 00:00:59,    195,    2.3,    9.8,   0.00,   0.00,  993.6,    0.1, -999.0
13-03-2023, 00:01:09,    215,    2.1,    9.9,   0.00,   0.00,  993.6,    0.2, -999.0
13-03-2023, 00:01:19,    187,    2.3,    9.8,   0.00,   0.00,  993.5,    0.1, -999.0
13-03-2023, 00:01:29,    229,    1.6,    9.9,   0.00,   0.00,  993.6,    0.1, -999.0
13-03-2023, 00:01:39,    225,    0.4,    9.8,   0.00,   0.00,  993.5,    0.1, -999.0
13-03-2023, 00:01:49,    196,    1.5,    9.8,   0.00,   0.00,  993.6,    0.0, -999.0
13-03-2023, 00:01:59,    239,    3.5,    9.9,   0.00,   0.00,  993.6,    0.0, -999.0
13-03-2023, 00:02:09,    213,    4.5,    9.8,   0.00,   0.00,  993.5,    0.1, -999.0
13-03-2023, 00:02:19,    219,    2.8,    9.8,   0.00,   0.00,  993.5,    0.0, -999.0
13-03-2023, 00:02:29,    211,    2.3,    9.9,   0.00,   0.00,  993.5,    0.0, -999.0
13-03-2023, 00:02:39,    210,    1.4,    9.9,   0.00,   0.00,  993.4,    0.0, -999.0
13-03-2023, 00:02:49,    218,    4.5,    9.9,   0.00,   0.00,  993.5,    0.0, -999.0
13-03-2023, 00:02:59,    197,    3.1,    9.9,   0.00,   0.00,  993.5,    0.1, -999.0
13-03-2023, 00:03:09,    214,    2.7,    9.9,   0.00,   0.00,  993.5,    0.0, -999.0
13-03-2023, 00:03:19,    212,    2.4,    9.9,   0.00,   0.00,  993.4,    0.1, -999.0
13-03-2023, 00:03:29,    205,    2.1,    9.8,   0.00,   0.00,  993.4,    0.0, -999.0
13-03-2023, 00:03:39,    179,    3.6,    9.9,   0.00,   0.00,  993.4,    0.1, -999.0
13-03-2023, 00:03:49,    202,    4.0,    9.8,   0.00,   0.00,  993.4,    0.1, -999.0
13-03-2023, 00:03:59,    248,    4.3,    9.9,   0.00,   0.00,  993.4,    0.1, -999.0
13-03-2023, 00:04:09,    274,    3.3,    9.9,   0.00,   0.00,  993.3,    0.0, -999.0
13-03-2023, 00:04:19,    201,    0.7,    9.9,   0.00,   0.00,  993.3,    0.0, -999.0
13-03-2023, 00:04:29,    167,    1.0,    9.9,   0.00,   0.00,  993.3,    0.0, -999.0
13-03-2023, 00:04:39,    162,    1.9,    9.8,   0.00,   0.00,  993.3,    0.1, -999.0
13-03-2023, 00:04:49,    171,    1.9,    9.9,   0.00,   0.00,  993.3,    0.0, -999.0
13-03-2023, 00:04:59,    217,    3.0,    9.8,   0.00,   0.00,  993.3,    0.0, -999.0
13-03-2023, 00:05:09,    204,    2.3,    9.9,   0.00,   0.00,  993.2,    0.0, -999.0
13-03-2023, 00:05:19,    268,    3.0,    9.8,   0.00,   0.00,  993.2,    0.1, -999.0
13-03-2023, 00:05:29,    197,    2.4,    9.8,   0.00,   0.00,  993.2,    0.1, -999.0
13-03-2023, 00:05:39,    190,    2.0,    9.9,   0.00,   0.00,  993.3,    0.2, -999.0
13-03-2023, 00:05:49,    246,    1.1,    9.8,   0.00,   0.00,  993.2,    0.0, -999.0
13-03-2023, 00:05:59,    208,    1.4,    9.9,   0.00,   0.00,  993.3,    0.0, -999.0
13-03-2023, 00:06:08,    207,    0.4,    9.8,   0.00,   0.00,  993.3,    0.2, -999.0
13-03-2023, 00:06:19,    194,    2.7,    9.8,   0.00,   0.00,  993.3,    0.0, -999.0
13-03-2023, 00:06:29,    213,    3.9,    9.9,   0.00,   0.00,  993.4,    0.0, -999.0
13-03-2023, 00:06:38,    270,    4.0,    9.8,   0.00,   0.00,  993.3,    0.1, -999.0
13-03-2023, 00:06:49,    184,    2.4,    9.9,   0.00,   0.00,  993.3,    0.0, -999.0
13-03-2023, 00:06:59,    199,    3.6,    9.9,   0.00,   0.00,  993.3,    0.0, -999.0
13-03-2023, 00:07:09,    225,    2.9,    9.9,   0.00,   0.00,  993.3,    0.1, -999.0
13-03-2023, 00:07:18,    205,    2.7,    9.9,   0.00,   0.00,  993.2,    0.1, -999.0
13-03-2023, 00:07:29,    181,    2.1,    9.9,   0.00,   0.00,  993.3,    0.0, -999.0
13-03-2023, 00:07:39,    178,    6.3,   10.0,   0.00,   0.00,  993.2,    0.2, -999.0
13-03-2023, 00:07:48,    197,    6.1,    9.9,   0.00,   0.00,  993.2,    0.1, -999.0
13-03-2023, 00:07:58,    201,    3.1,   10.0,   0.00,   0.00,  993.2,    0.1, -999.0
13-03-2023, 00:08:09,    200,    3.4,    9.9,   0.00,   0.00,  993.2,    0.0, -999.0
13-03-2023, 00:08:18,    260,    5.8,   10.0,   0.00,   0.00,  993.2,    0.0, -999.0
13-03-2023, 00:08:28,    213,    4.5,   10.0,   0.00,   0.00,  993.2,    0.1, -999.0
13-03-2023, 00:08:38,    254,    4.0,   10.0,   0.00,   0.00,  993.2,    0.0, -999.0
13-03-2023, 00:08:49,    220,    3.3,   10.0,   0.00,   0.00,  993.2,    0.0, -999.0
13-03-2023, 00:08:58,    192,    6.0,   10.0,   0.00,   0.00,  993.2,    0.1, -999.0
13-03-2023, 00:09:08,    198,    3.3,    9.9,   0.00,   0.00,  993.2,    0.0, -999.0
13-03-2023, 00:09:19,    236,    6.0,   10.0,   0.00,   0.00,  993.2,    0.1, -999.0
13-03-2023, 00:09:28,    190,    2.9,   10.0,   0.00,   0.00,  993.2,    0.0, -999.0
13-03-2023, 00:09:38,    165,    4.1,   10.0,   0.00,   0.00,  993.2,    0.0, -999.0
13-03-2023, 00:09:48,    198,    3.8,    9.9,   0.00,   0.00,  993.2,    0.1, -999.0
13-03-2023, 00:09:59,    214,    4.6,    9.9,   0.00,   0.00,  993.2,    0.0, -999.0
13-03-2023, 00:10:08,    211,    4.1,    9.9,   0.00,   0.00,  993.2,    0.1, -999.0
13-03-2023, 00:10:18,    215,    3.2,    9.9,   0.00,   0.00,  993.2,    0.1, -999.0
13-03-2023, 00:10:28,    249,    5.3,   10.0,   0.00,   0.00,  993.2,    0.0, -999.0
13-03-2023, 00:10:38,    215,    4.0,    9.9,   0.00,   0.00,  993.2,    0.0, -999.0
13-03-2023, 00:10:48,    202,    2.7,   10.0,   0.00,   0.00,  993.2,    0.2, -999.0
13-03-2023, 00:10:58,    226,    5.9,   10.0,   0.00,   0.00,  993.2,    0.0, -999.0
13-03-2023, 00:11:08,    204,    3.0,   10.0,   0.00,   0.00,  993.2,    0.1, -999.0
13-03-2023, 00:11:18,    247,    6.4,   10.0,   0.00,   0.00,  993.2,    0.1, -999.0
13-03-2023, 00:11:28,    189,    2.5,   10.0,   0.00,   0.00,  993.2,    0.1, -999.0
13-03-2023, 00:11:38,    223,    1.9,    9.9,   0.00,   0.00,  993.2,    0.3, -999.0
13-03-2023, 00:11:48,    218,    1.3,    9.9,   0.00,   0.00,  993.2,    0.0, -999.0
13-03-2023, 00:11:58,    179,    1.4,    9.9,   0.00,   0.00,  993.2,    0.0, -999.0
13-03-2023, 00:12:08,    213,    1.5,   10.0,   0.00,   0.00,  993.2,    0.0, -999.0
13-03-2023, 00:12:18,    214,    2.0,   10.1,   0.00,   0.00,  993.2,    0.0, -999.0
13-03-2023, 00:12:28,    314,    0.3,    9.9,   0.00,   0.00,  993.2,    0.0, -999.0
13-03-2023, 00:12:38,    159,    0.8,    9.9,   0.00,   0.00,  993.2,    0.1, -999.0
13-03-2023, 00:12:48,    227,    1.8,   10.0,   0.00,   0.00,  993.2,    0.1, -999.0
13-03-2023, 00:12:58,    202,    1.2,    9.9,   0.00,   0.00,  993.3,    0.1, -999.0
13-03-2023, 00:13:08,    168,    1.5,    9.9,   0.00,   0.00,  993.3,    0.0, -999.0
13-03-2023, 00:13:18,    262,    2.4,    9.9,   0.00,   0.00,  993.3,    0.1, -999.0
13-03-2023, 00:13:28,    203,    1.8,    9.9,   0.00,   0.00,  993.3,    0.2, -999.0
13-03-2023, 00:13:38,    194,    1.4,    9.9,   0.00,   0.00,  993.3,    0.1, -999.0
13-03-2023, 00:13:48,    238,    0.8,    9.9,   0.00,   0.00,  993.3,    0.3, -999.0
13-03-2023, 00:13:58,    219,    2.6,    9.9,   0.00,   0.00,  993.3,    0.1, -999.0
13-03-2023, 00:14:08,    204,    5.3,    9.9,   0.00,   0.00,  993.3,    0.0, -999.0
13-03-2023, 00:14:18,    110,    5.1,   10.0,   0.00,   0.00,  993.2,    0.1, -999.0
13-03-2023, 00:14:28,    235,    4.2,   10.0,   0.00,   0.00,  993.2,    0.1, -999.0
13-03-2023, 00:14:38,    219,    4.8,    9.9,   0.00,   0.00,  993.2,    0.1, -999.0
13-03-2023, 00:14:48,    206,    2.6,    9.9,   0.00,   0.00,  993.3,    0.0, -999.0
13-03-2023, 00:14:58,    212,    4.0,   10.0,   0.00,   0.00,  993.2,    0.0, -999.0
13-03-2023, 00:15:08,    229,    3.8,   10.0,   0.00,   0.00,  993.2,    0.1, -999.0
13-03-2023, 00:15:18,    193,    2.8,   10.0,   0.00,   0.00,  993.2,    0.1, -999.0
13-03-2023, 00:15:28,    215,    3.0,   10.0,   0.00,   0.00,  993.3,    0.0, -999.0
13-03-2023, 00:15:37,    186,    1.9,   10.0,   0.00,   0.00,  993.2,    0.1, -999.0
13-03-2023, 00:15:48,    153,    0.3,   10.0,   0.00,   0.00,  993.2,    0.0, -999.0
13-03-2023, 00:15:58,    194,    4.8,   10.0,   0.00,   0.00,  993.2,    0.1, -999.0
13-03-2023, 00:16:07,    199,    2.6,   10.0,   0.00,   0.00,  993.2,    0.0, -999.0
13-03-2023, 00:16:18,    186,    3.9,   10.0,   0.00,   0.00,  993.2,    0.0, -999.0
13-03-2023, 00:16:28,    211,    3.8,   10.0,   0.00,   0.00,  993.2,    0.0, -999.0
13-03-2023, 00:16:38,    207,    3.5,   10.0,   0.00,   0.00,  993.2,    0.0, -999.0
13-03-2023, 00:16:47,    207,    1.0,   10.0,   0.00,   0.00,  993.2,    0.0, -999.0
13-03-2023, 00:16:58,    230,    0.2,   10.0,   0.00,   0.00,  993.1,    0.0, -999.0
13-03-2023, 00:17:08,    180,    1.1,    9.8,   0.00,   0.00,  993.2,    0.0, -999.0
13-03-2023, 00:17:17,    201,    1.1,   10.0,   0.00,   0.00,  993.2,    0.1, -999.0
13-03-2023, 00:17:27,    225,    4.5,   10.0,   0.00,   0.00,  993.2,    0.0, -999.0
13-03-2023, 00:17:38,    186,    2.8,   10.0,   0.00,   0.00,  993.2,    0.1, -999.0
13-03-2023, 00:17:47,    201,    2.3,    9.9,   0.00,   0.00,  993.2,    0.1, -999.0
13-03-2023, 00:17:57,    231,    4.6,   10.0,   0.00,   0.00,  993.2,    0.0, -999.0
13-03-2023, 00:18:07,    160,    4.7,    9.9,   0.00,   0.00,  993.2,    0.2, -999.0
13-03-2023, 00:18:18,    179,    2.8,   10.0,   0.00,   0.00,  993.2,    0.0, -999.0
13-03-2023, 00:18:27,    235,    3.3,   10.0,   0.00,   0.00,  993.2,    0.1, -999.0
13-03-2023, 00:18:37,    204,    1.1,    9.9,   0.00,   0.00,  993.1,    0.0, -999.0
13-03-2023, 00:18:48,    174,    3.8,   10.0,   0.00,   0.00,  993.2,    0.0, -999.0
13-03-2023, 00:18:57,    267,    2.4,   10.0,   0.00,   0.00,  993.2,    0.0, -999.0
13-03-2023, 00:19:07,    173,    1.9,   10.0,   0.00,   0.00,  993.2,    0.2, -999.0
13-03-2023, 00:19:17,    200,    3.4,   10.0,   0.00,   0.00,  993.2,    0.0, -999.0
13-03-2023, 00:19:28,    231,    2.0,   10.0,   0.00,   0.00,  993.2,    0.1, -999.0
13-03-2023, 00:19:37,    253,    4.0,   10.0,   0.00,   0.00,  993.2,    0.0, -999.0
13-03-2023, 00:19:47,    213,    3.2,   10.0,   0.00,   0.00,  993.2,    0.0, -999.0
13-03-2023, 00:19:57,    196,    4.1,   10.0,   0.00,   0.00,  993.2,    0.1, -999.0
13-03-2023, 00:20:07,    185,    0.9,   10.0,   0.00,   0.00,  993.1,    0.1, -999.0
13-03-2023, 00:20:17,    210,    1.6,    9.9,   0.00,   0.00,  993.1,    0.1, -999.0
13-03-2023, 00:20:27,    194,    1.7,    9.9,   0.00,   0.00,  993.1,    0.0, -999.0
13-03-2023, 00:20:37,    166,    1.1,    9.9,   0.00,   0.00,  993.1,    0.1, -999.0
13-03-2023, 00:20:47,    197,    1.3,    9.9,   0.00,   0.00,  993.1,    0.0, -999.0
13-03-2023, 00:20:57,    229,    3.9,    9.9,   0.00,   0.00,  993.2,    0.1, -999.0
13-03-2023, 00:21:07,    147,    5.1,    9.9,   0.00,   0.00,  993.1,    0.0, -999.0
13-03-2023, 00:21:17,    198,    3.1,    9.9,   0.00,   0.00,  993.1,    0.1, -999.0
13-03-2023, 00:21:27,    237,    0.8,    9.8,   0.00,   0.00,  993.0,    0.1, -999.0
13-03-2023, 00:21:37,    213,    4.4,    9.9,   0.00,   0.00,  993.1,    0.2, -999.0
13-03-2023, 00:21:47,    171,    5.2,    9.9,   0.00,   0.00,  993.1,    0.0, -999.0
13-03-2023, 00:21:57,    262,    3.2,    9.9,   0.00,   0.00,  993.1,    0.1, -999.0
13-03-2023, 00:22:07,    232,    1.7,    9.9,   0.00,   0.00,  993.0,    0.2, -999.0
13-03-2023, 00:22:17,    270,    3.8,    9.9,   0.00,   0.00,  993.0,    0.0, -999.0
13-03-2023, 00:22:27,    228,    4.7,    9.9,   0.00,   0.00,  993.1,    0.0, -999.0
13-03-2023, 00:22:37,    173,    5.3,    9.9,   0.00,   0.00,  993.1,    0.1, -999.0
13-03-2023, 00:22:47,    200,    3.6,    9.9,   0.00,   0.00,  993.0,    0.0, -999.0
13-03-2023, 00:22:57,    197,    3.6,    9.9,   0.00,   0.00,  993.0,    0.0, -999.0
13-03-2023, 00:23:07,    245,    3.7,    9.9,   0.00,   0.00,  993.0,    0.1, -999.0
13-03-2023, 00:23:17,    180,    4.9,    9.9,   0.00,   0.00,  993.1,    0.1, -999.0
13-03-2023, 00:23:27,    206,    1.9,   10.0,   0.00,   0.00,  993.1,    0.0, -999.0
13-03-2023, 00:23:37,    224,    3.3,    9.9,   0.00,   0.00,  993.1,    0.1, -999.0
13-03-2023, 00:23:47,    232,    1.1,    9.8,   0.00,   0.00,  993.1,    0.0, -999.0
13-03-2023, 00:23:57,    221,    3.2,    9.9,   0.00,   0.00,  993.2,    0.1, -999.0
13-03-2023, 00:24:07,    198,    3.8,    9.8,   0.00,   0.00,  993.2,    0.0, -999.0
13-03-2023, 00:24:17,    216,    3.3,    9.9,   0.00,   0.00,  993.2,    0.1, -999.0
13-03-2023, 00:24:27,    214,    4.0,    9.9,   0.00,   0.00,  993.2,    0.1, -999.0
13-03-2023, 00:24:37,    163,    1.4,    9.9,   0.00,   0.00,  993.2,    0.0, -999.0
13-03-2023, 00:24:47,    189,    1.6,   10.0,   0.00,   0.00,  993.1,    0.1, -999.0
13-03-2023, 00:24:57,    184,    0.8,    9.9,   0.00,   0.00,  993.2,    0.1, -999.0
13-03-2023, 00:25:06,    202,    2.7,    9.9,   0.00,   0.00,  993.1,    0.1, -999.0
13-03-2023, 00:25:17,    191,    3.0,    9.9,   0.00,   0.00,  993.1,    0.0, -999.0
13-03-2023, 00:25:27,    205,    5.2,    9.8,   0.00,   0.00,  993.1,    0.0, -999.0
13-03-2023, 00:25:36,    228,    5.6,    9.8,   0.00,   0.00,  993.1,    0.1, -999.0
13-03-2023, 00:25:47,    258,    1.2,    9.9,   0.00,   0.00,  993.1,    0.0, -999.0
13-03-2023, 00:25:57,    260,    1.0,    9.8,   0.00,   0.00,  993.1,    0.0, -999.0
13-03-2023, 00:26:07,    213,    1.6,    9.8,   0.00,   0.00,  993.1,    0.0, -999.0
13-03-2023, 00:26:16,    222,    2.8,    9.9,   0.00,   0.00,  993.2,    0.0, -999.0
13-03-2023, 00:26:27,    208,    1.1,    9.9,   0.00,   0.00,  993.1,    0.1, -999.0
13-03-2023, 00:26:37,    193,    3.0,    9.9,   0.00,   0.00,  993.1,    0.1, -999.0
13-03-2023, 00:26:46,    212,    3.3,    9.9,   0.00,   0.00,  993.1,    0.0, -999.0
13-03-2023, 00:26:56,    231,    1.8,    9.9,   0.00,   0.00,  993.1,    0.1, -999.0
13-03-2023, 00:27:07,    204,    2.2,    9.9,   0.00,   0.00,  993.0,    0.1, -999.0
13-03-2023, 00:27:17,    199,    1.0,    9.9,   0.00,   0.00,  993.1,    0.0, -999.0
13-03-2023, 00:27:26,    203,    2.1,    9.9,   0.00,   0.01,  993.1,    0.2, -999.0
13-03-2023, 00:27:36,    175,    6.4,    9.9,   0.00,   0.00,  993.0,    0.1, -999.0
13-03-2023, 00:27:47,    177,    4.7,    9.9,   0.00,   0.00,  993.0,    0.0, -999.0
13-03-2023, 00:27:56,    199,    7.0,    9.9,   0.00,   0.00,  993.0,    0.1, -999.0
13-03-2023, 00:28:06,    198,    5.7,    9.9,   0.00,   0.00,  993.0,    0.0, -999.0
13-03-2023, 00:28:16,    211,    2.8,    9.8,   0.00,   0.00,  993.0,    0.0, -999.0
13-03-2023, 00:28:26,    232,    5.5,    9.9,   0.00,   0.00,  993.0,    0.1, -999.0
13-03-2023, 00:28:36,    219,    7.0,    9.9,   0.00,   0.01,  993.0,    0.2, -999.0
13-03-2023, 00:28:46,    160,    8.2,    9.9,   0.00,   0.00,  993.0,    0.0, -999.0
13-03-2023, 00:28:56,    199,    1.9,    9.8,   0.00,   0.00,  993.0,    0.0, -999.0
13-03-2023, 00:29:06,    220,    3.5,    9.8,   0.00,   0.00,  993.0,    0.1, -999.0
13-03-2023, 00:29:16,    204,    4.1,    9.9,   0.00,   0.00,  993.0,    0.0, -999.0
13-03-2023, 00:29:26,    182,    1.9,    9.9,   0.00,   0.00,  993.0,    0.0, -999.0
13-03-2023, 00:29:36,    142,    7.3,    9.8,   0.00,   0.00,  993.0,    0.1, -999.0
13-03-2023, 00:29:46,    251,    6.7,    9.9,   0.00,   0.00,  993.0,    0.2, -999.0
13-03-2023, 00:29:56,    172,    5.0,    9.9,   0.00,   0.00,  993.0,    0.1, -999.0
13-03-2023, 00:30:06,    239,    3.4,    9.9,   0.00,   0.00,  993.0,    0.1, -999.0
13-03-2023, 00:30:16,    210,    2.4,    9.8,   0.00,   0.00,  993.0,    0.1, -999.0
13-03-2023, 00:30:26,    195,    3.3,    9.9,   0.00,   0.00,  993.0,    0.0, -999.0
13-03-2023, 00:30:36,    190,    2.5,    9.7,   0.00,   0.00,  993.0,    0.1, -999.0
13-03-2023, 00:30:46,    206,    1.5,    9.9,   0.00,   0.00,  993.0,    0.0, -999.0
13-03-2023, 00:30:56,    160,    1.9,    9.9,   0.00,   0.00,  993.0,    0.0, -999.0
13-03-2023, 00:31:06,    173,    2.6,    9.8,   0.00,   0.00,  993.0,    0.0, -999.0
13-03-2023, 00:31:16,    192,    2.8,    9.8,   0.00,   0.00,  993.0,    0.0, -999.0
13-03-2023, 00:31:26,    203,    1.3,    9.8,   0.00,   0.00,  993.0,    0.0, -999.0
13-03-2023, 00:31:36,    215,    0.7,    9.8,   0.00,   0.01,  992.9,    0.0, -999.0
13-03-2023, 00:31:46,    161,    1.7,    9.8,   0.00,   0.00,  993.0,    0.0, -999.0
13-03-2023, 00:31:56,    150,    1.8,    9.8,   0.00,   0.00,  993.0,    0.1, -999.0
13-03-2023, 00:32:06,    203,    3.8,    9.8,   0.00,   0.00,  993.0,    0.1, -999.0
13-03-2023, 00:32:16,    209,    2.3,    9.7,   0.00,   0.00,  993.0,    0.0, -999.0
13-03-2023, 00:32:26,    272,    1.0,    9.7,   0.00,   0.00,  993.0,    0.1, -999.0
13-03-2023, 00:32:36,    163,    1.5,    9.7,   0.00,   0.00,  993.0,    0.0, -999.0
13-03-2023, 00:32:46,    199,    4.2,    9.8,   0.00,   0.00,  993.0,    0.1, -999.0
13-03-2023, 00:32:56,    157,    4.5,    9.8,   0.00,   0.00,  993.0,    0.1, -999.0
13-03-2023, 00:33:06,    198,    7.6,    9.8,   0.00,   0.00,  993.0,    0.0, -999.0
13-03-2023, 00:33:16,    193,    4.3,    9.8,   0.00,   0.00,  993.1,    0.1, -999.0
13-03-2023, 00:33:26,    205,    3.2,    9.9,   0.00,   0.00,  993.0,    0.1, -999.0
13-03-2023, 00:33:36,    206,    4.9,    9.8,   0.00,   0.00,  993.1,    0.0, -999.0
13-03-2023, 00:33:46,    172,    6.7,    9.8,   0.00,   0.00,  993.0,    0.1, -999.0
13-03-2023, 00:33:56,    190,    5.0,    9.8,   0.00,   0.00,  993.1,    0.0, -999.0
13-03-2023, 00:34:06,    199,    5.5,    9.7,   0.00,   0.00,  993.1,    0.0, -999.0
13-03-2023, 00:34:16,    194,    3.8,    9.8,   0.00,   0.00,  993.0,    0.2, -999.0
13-03-2023, 00:34:26,    210,    7.6,    9.9,   0.00,   0.00,  993.1,    0.0, -999.0
13-03-2023, 00:34:35,    203,    5.8,    9.8,   0.00,   0.00,  993.1,    0.1, -999.0
13-03-2023, 00:34:46,    221,    5.4,    9.8,   0.00,   0.00,  993.2,    0.0, -999.0
13-03-2023, 00:34:56,    169,    6.3,    9.9,   0.00,   0.00,  993.0,    0.1, -999.0
13-03-2023, 00:35:05,    184,    1.7,    9.9,   0.00,   0.00,  993.0,    0.1, -999.0
13-03-2023, 00:35:16,    161,    4.9,    9.8,   0.00,   0.00,  993.0,    0.0, -999.0
13-03-2023, 00:35:26,    209,    3.3,    9.8,   0.00,   0.00,  993.0,    0.0, -999.0
13-03-2023, 00:35:36,    218,    2.8,    9.7,   0.00,   0.00,  993.0,    0.1, -999.0
13-03-2023, 00:35:45,    204,    3.8,    9.9,   0.00,   0.00,  993.0,    0.0, -999.0
13-03-2023, 00:35:56,    249,    4.1,    9.9,   0.00,   0.00,  993.1,    0.1, -999.0
13-03-2023, 00:36:06,    241,    1.0,    9.9,   0.00,   0.00,  993.0,    0.1, -999.0
13-03-2023, 00:36:15,    191,    2.4,    9.9,   0.00,   0.00,  993.0,    0.1, -999.0
13-03-2023, 00:36:25,    205,    4.0,    9.8,   0.00,   0.00,  993.1,    0.1, -999.0
13-03-2023, 00:36:36,    227,    5.7,    9.8,   0.00,   0.00,  993.1,    0.1, -999.0
13-03-2023, 00:36:46,    183,    5.1,    9.8,   0.00,   0.00,  993.0,    0.0, -999.0
13-03-2023, 00:36:55,    228,    6.0,    9.8,   0.00,   0.00,  993.0,    0.0, -999.0
13-03-2023, 00:37:05,    190,    4.1,    9.8,   0.00,   0.00,  993.0,    0.1, -999.0
13-03-2023, 00:37:16,    180,    4.9,    9.8,   0.00,   0.00,  993.1,    0.0, -999.0
13-03-2023, 00:37:25,    188,    6.2,    9.8,   0.00,   0.00,  993.0,    0.0, -999.0
13-03-2023, 00:37:35,    218,    5.2,    9.8,   0.00,   0.00,  993.1,    0.0, -999.0
13-03-2023, 00:37:45,    201,    6.8,    9.8,   0.00,   0.00,  993.0,    0.1, -999.0
13-03-2023, 00:37:55,    205,    5.0,    9.7,   0.00,   0.00,  993.1,    0.0, -999.0
13-03-2023, 00:38:05,    264,    6.1,    9.8,   0.00,   0.00,  993.0,    0.0, -999.0
13-03-2023, 00:38:15,    197,    3.8,    9.9,   0.00,   0.00,  993.1,    0.1, -999.0
13-03-2023, 00:38:26,    220,    3.0,    9.9,   0.00,   0.00,  993.1,    0.1, -999.0
13-03-2023, 00:38:35,    241,    2.2,    9.9,   0.00,   0.00,  993.1,    0.1, -999.0
13-03-2023, 00:38:45,    198,    0.6,    9.9,   0.00,   0.00,  993.1,    0.0, -999.0
13-03-2023, 00:38:55,    201,    1.2,    9.9,   0.00,   0.00,  993.0,    0.1, -999.0
13-03-2023, 00:39:05,    199,    1.6,    9.9,   0.00,   0.00,  993.1,    0.1, -999.0
13-03-2023, 00:39:15,    203,    2.8,    9.8,   0.00,   0.00,  993.1,    0.1, -999.0
13-03-2023, 00:39:25,    161,    3.5,    9.8,   0.00,   0.00,  993.1,    0.0, -999.0
13-03-2023, 00:39:35,    188,    2.8,    9.8,   0.00,   0.00,  993.1,    0.0, -999.0
13-03-2023, 00:39:45,    222,    4.0,    9.8,   0.00,   0.00,  993.0,    0.1, -999.0
13-03-2023, 00:39:55,    157,    3.7,    9.8,   0.00,   0.00,  993.1,    0.0, -999.0
13-03-2023, 00:40:05,    196,    4.5,    9.8,   0.00,   0.00,  993.1,    0.0, -999.0
13-03-2023, 00:40:15,    197,    3.5,    9.8,   0.00,   0.00,  993.1,    0.0, -999.0
13-03-2023, 00:40:25,    224,    3.6,    9.8,   0.00,   0.00,  993.0,    0.1, -999.0
13-03-2023, 00:40:35,    188,    4.0,    9.9,   0.00,   0.00,  993.1,    0.0, -999.0
13-03-2023, 00:40:45,    216,    1.8,    9.9,   0.00,   0.00,  993.1,    0.1, -999.0
13-03-2023, 00:40:55,    187,    2.1,    9.9,   0.00,   0.00,  993.0,    0.1, -999.0
13-03-2023, 00:41:05,    238,    4.9,    9.9,   0.00,   0.00,  993.1,    0.1, -999.0
13-03-2023, 00:41:15,    216,    3.2,    9.9,   0.00,   0.00,  993.1,    0.1, -999.0
13-03-2023, 00:41:25,    200,    2.7,    9.8,   0.00,   0.00,  993.1,    0.0, -999.0
13-03-2023, 00:41:35,    222,    0.8,    9.8,   0.00,   0.00,  993.1,    0.0, -999.0
13-03-2023, 00:41:45,    206,    2.6,    9.8,   0.00,   0.00,  993.1,    0.0, -999.0
13-03-2023, 00:41:55,    195,    1.1,    9.8,   0.00,   0.00,  993.2,    0.1, -999.0
13-03-2023, 00:42:05,    190,    3.7,    9.9,   0.00,   0.00,  993.2,    0.2, -999.0
13-03-2023, 00:42:15,    194,    4.2,    9.9,   0.00,   0.00,  993.1,    0.0, -999.0
13-03-2023, 00:42:25,    186,    3.1,    9.8,   0.00,   0.00,  993.0,    0.1, -999.0
13-03-2023, 00:42:35,    228,    4.6,    9.9,   0.00,   0.00,  993.0,    0.0, -999.0
13-03-2023, 00:42:45,    187,    4.4,    9.9,   0.00,   0.00,  993.0,    0.0, -999.0
13-03-2023, 00:42:55,    178,    5.1,    9.9,   0.00,   0.00,  993.0,    0.1, -999.0
13-03-2023, 00:43:05,    194,    5.2,    9.9,   0.00,   0.00,  993.0,    0.2, -999.0
13-03-2023, 00:43:15,    211,    3.7,    9.9,   0.00,   0.00,  993.0,    0.0, -999.0
13-03-2023, 00:43:25,    218,    2.2,    9.9,   0.00,   0.00,  993.0,    0.0, -999.0
13-03-2023, 00:43:35,    222,    0.4,    9.9,   0.00,   0.00,  993.0,    0.1, -999.0
13-03-2023, 00:43:45,    198,    2.0,    9.9,   0.00,   0.00,  992.9,    0.0, -999.0
13-03-2023, 00:43:55,    193,    3.0,    9.9,   0.00,   0.00,  993.0,    0.0, -999.0
13-03-2023, 00:44:05,    161,    3.2,    9.9,   0.00,   0.00,  993.0,    0.0, -999.0
13-03-2023, 00:44:14,    223,    2.4,    9.9,   0.00,   0.00,  993.0,    0.0, -999.0
13-03-2023, 00:44:25,    187,    3.5,    9.9,   0.00,   0.00,  993.1,    0.0, -999.0
13-03-2023, 00:44:35,    190,    1.4,    9.8,   0.00,   0.00,  993.0,    0.0, -999.0
13-03-2023, 00:44:45,    173,    3.7,    9.8,   0.00,   0.00,  993.1,    0.0, -999.0
13-03-2023, 00:44:54,    216,    3.4,    9.9,   0.00,   0.00,  993.1,    0.0, -999.0
13-03-2023, 00:45:05,    201,    5.2,    9.9,   0.00,   0.00,  993.1,    0.1, -999.0
13-03-2023, 00:45:15,    241,    5.4,    9.9,   0.00,   0.00,  993.1,    0.0, -999.0
13-03-2023, 00:45:24,    223,    8.5,    9.9,   0.00,   0.00,  993.1,    0.1, -999.0
13-03-2023, 00:45:35,    210,    4.5,    9.9,   0.00,   0.00,  993.1,    0.3, -999.0
13-03-2023, 00:45:45,    225,    3.3,    9.9,   0.00,   0.00,  993.2,    0.1, -999.0
13-03-2023, 00:45:54,    226,    5.8,    9.9,   0.00,   0.00,  993.1,    0.0, -999.0
13-03-2023, 00:46:04,    192,    3.5,    9.9,   0.00,   0.00,  993.2,    0.0, -999.0
13-03-2023, 00:46:15,    162,    2.8,    9.8,   0.00,   0.00,  993.2,    0.1, -999.0
13-03-2023, 00:46:25,    195,    1.2,    9.9,   0.00,   0.00,  993.2,    0.0, -999.0
13-03-2023, 00:46:34,    223,    3.6,    9.9,   0.00,   0.00,  993.2,    0.1, -999.0
13-03-2023, 00:46:44,    197,    4.8,    9.8,   0.00,   0.00,  993.2,    0.0, -999.0
13-03-2023, 00:46:55,    253,    3.8,    9.9,   0.00,   0.00,  993.2,    0.0, -999.0